Durango, Mexico

5:52 PM CDT on August 18, 2017 (GMT -0500)
Durango

Weather History for MMDO - September, 2013

Change the Weather History Date:

Thursday, September 5, 2013

  Actual Average Record
Temperature  
Mean Temperature 67 °F -  
Max Temperature 77 °F 78 °F 92 °F (2015)
Min Temperature 57 °F 53 °F 35 °F (1996)
Cooling Degree Days 2    
Growing Degree Days 17 (Base 50)    
Moisture  
Dew Point 56 °F    
Average Humidity 72    
Maximum Humidity 94    
Minimum Humidity 44    
Precipitation  
Precipitation 0.02 in - - ()
Sea Level Pressure  
Sea Level Pressure 30.08 in    
Wind  
Wind Speed 5 mph ()    
Max Wind Speed 14 mph    
Max Gust Speed -    
Visibility 11.4 miles    
Events      
Averages and records for this station are not official NWS values.
T = Trace of Precipitation, MM = Missing Value Source: Averaged Metar Reports

Daily Weather History Graph

Daily Weather History Graph

Search for Another Location

Airport or City:

Trip Planner

Search our weather history database for the weather conditions in past years. The results will help you decide how hot, cold, wet, or windy it might be!

Date:

Astronomy

Sep. 05, 2013 Rise Set
Actual Time 7:41 AM CDT 8:11 PM CDT
Civil Twilight 7:18 AM CDT 8:34 PM CDT
Nautical Twilight 6:51 AM CDT 9:01 PM CDT
Astronomical Twilight 6:24 AM CDT 9:28 PM CDT
Moon 7:48 AM CDT (9/5) 8:15 PM CDT (9/5)
Length of Visible Light 13h 16m
Length of Day
12h 30m
New Moon, 0% of the Moon is Illuminated
Sep 5
New Moon
Sep 12
First Quarter
Sep 19
Full
Sep 26
Last Quarter
Oct 4
New

Hourly Weather History & Observations

Time (CDT) Temp. Dew Point Humidity Pressure Visibility Wind Dir Wind Speed Gust Speed Precip Events Conditions
12:55 AM 63 °F 54 °F 65% 29.81 in 6 mi Calm Calm - -   Overcast
5:43 AM 57.2 °F 55.4 °F 94% 30.24 in 7.0 mi WNW 4.6 mph - N/A   Mostly Cloudy
6:44 AM 57.2 °F 55.4 °F 94% 29.84 in 7.0 mi NNW 4.6 mph - N/A   Overcast
6:58 AM 61 °F 55 °F 75% 29.88 in 6 mi Calm Calm - -   Overcast
7:40 AM 57.2 °F 55.4 °F 94% 30.25 in 8.0 mi NNE 4.6 mph - N/A   Overcast
8:42 AM 59.0 °F 55.4 °F 88% 30.28 in 10.0 mi NE 5.8 mph - N/A   Overcast
9:40 AM 62.6 °F 57.2 °F 82% 29.90 in 12.0 mi North 5.8 mph - N/A   Mostly Cloudy
9:55 AM 64 °F 56 °F 70% 29.96 in 31 mi Calm Calm - -   Overcast
10:40 AM 64.4 °F 53.6 °F 68% 30.30 in 12.0 mi ENE 11.5 mph - N/A   Overcast
11:40 AM 68.0 °F 53.6 °F 60% 30.30 in 14.0 mi ENE 12.7 mph - N/A   Overcast
12:40 PM 71 °F 56 °F 48% 29.93 in 19 mi SE 11.2 mph - -   Mostly Cloudy
12:47 PM 69.8 °F 53.6 °F 56% 29.94 in 14.0 mi East 8.1 mph - N/A   Overcast
1:45 PM 71.6 °F 53.6 °F 53% 30.27 in 14.0 mi ENE 9.2 mph - N/A   Overcast
2:44 PM 71.6 °F 53.6 °F 53% 30.25 in 14.0 mi East 5.8 mph - N/A   Overcast
3:40 PM 71 °F 56 °F 48% 29.87 in 22 mi SE 6.7 mph - -   Overcast
3:42 PM 71.6 °F 53.6 °F 53% 29.87 in 14.0 mi ESE 6.9 mph - N/A   Overcast
4:47 PM 73.4 °F 50.0 °F 44% 30.22 in 14.0 mi East 13.8 mph - N/A   Overcast
5:46 PM 68.0 °F 55.4 °F 64% 30.23 in 14.0 mi SE 9.2 mph - N/A   Overcast
6:46 PM 68.0 °F 57.2 °F 68% 29.88 in 12.0 mi SW 3.5 mph - N/A   Overcast
6:54 PM 68 °F 60 °F 69% 29.82 in 12 mi SSW 4.5 mph - -   Partly Cloudy
7:42 PM 62.6 °F 59.0 °F 88% 30.25 in 12.0 mi North 3.5 mph - N/A   Overcast
8:51 PM 62.6 °F 60.8 °F 94% 30.27 in 12.0 mi North 3.5 mph - N/A   Overcast
9:48 PM 60.8 °F 59.0 °F 94% 30.30 in 12.0 mi North 3.5 mph - N/A   Overcast
9:56 PM 63 °F 60 °F 86% 29.88 in 6 mi ENE 2.2 mph - -   Partly Cloudy
10:45 PM 60.8 °F 59.0 °F 94% 30.30 in 12.0 mi North 6.9 mph - N/A   Overcast